Home   Weather   Regina   Past weeks
Flag for Canada

Past Weather in Regina, Saskatchewan, Canada — Yesterday and Last 2 Weeks

Now
28 °F

Partly sunny.


Feels Like: 21 °F
Forecast: 55 / 32 °F
Wind: 7 mph from West

Location: Regina Weather Station

Current Time: Oct 19, 2019 at 8:53:46 am

Latest Report: Oct 19, 2019 at 8:00 am


Visibility: 15 mi

Pressure: 29.58 "Hg (27.51 "Hg at 577m altitude)

Humidity: 93%

Dew Point: 27 °F

Location of ReginaLocation

Past Weather in Regina — Graph

°F

Regina Temperature Yesterday

Maximum temperature yesterday: 57 °F (at 3:00 pm)
Minimum temperature yesterday: 30 °F (at 10:00 pm)
Average temperature yesterday: 44 °F

High & Low Weather Summary for the Past Weeks

 TemperatureHumidityPressure
High68 °F (Oct 7, 3:00 pm)100% (Oct 4, 1:00 pm)30.51 "Hg (Oct 4, 1:00 pm)
Low10 °F (Oct 13, 7:00 am)21% (Oct 7, 3:00 pm)29.40 "Hg (Oct 17, 10:00 pm)
Average37 °F75%29.93 "Hg
* Reported Oct 4 7:00 am — Oct 19 7:00 am, Regina. Weather by CustomWeather, © 2019

Note: Actual official high and low records may vary slightly from our data, if they occured in-between our weather recording intervals... More about our weather records

Advertising

Regina Weather History for the Previous 24 Hours

Scroll right to see more
 ConditionsComfort  
Time TempWeatherWind HumidityBarometerVisibility
7:00 am
Sat, Oct 19
27 °FPassing clouds.7 mph93%29.56 "Hg15 mi
6:00 am28 °FClear.6 mph93%29.56 "Hg15 mi
5:00 am30 °FPassing clouds.No wind93%29.54 "Hg15 mi
4:00 am30 °FClear.7 mph86%29.54 "Hg15 mi
3:00 am32 °FPassing clouds.6 mph87%29.53 "Hg15 mi
2:00 am34 °FPassing clouds.9 mph81%29.52 "Hg15 mi
1:00 am32 °FPassing clouds.6 mph87%29.53 "Hg15 mi
12:00 am32 °FPassing clouds.7 mph87%29.52 "Hg15 mi
11:00 pm
Fri, Oct 18
32 °FPassing clouds.No wind87%29.54 "Hg15 mi
10:00 pm30 °FClear.9 mph93%29.54 "Hg15 mi
9:00 pm41 °FPassing clouds.3 mph76%29.53 "Hg15 mi
8:00 pm43 °FPassing clouds.3 mph71%29.54 "Hg15 mi
7:00 pm46 °FPassing clouds.6 mph62%29.54 "Hg15 mi
6:00 pm50 °FPassing clouds.7 mph58%29.52 "Hg15 mi
5:00 pm55 °FPassing clouds.12 mph47%29.49 "Hg15 mi
4:00 pm57 °FPassing clouds.15 mph44%29.48 "Hg15 mi
3:00 pm57 °FPassing clouds.15 mph51%29.46 "Hg15 mi
2:00 pm55 °FPassing clouds.17 mph55%29.45 "Hg15 mi
1:00 pm54 °FPassing clouds.15 mph63%29.46 "Hg15 mi
12:00 pm50 °FPassing clouds.13 mph67%29.48 "Hg15 mi
11:00 am46 °FPartly sunny.16 mph71%29.47 "Hg15 mi
10:00 am43 °FScattered clouds.15 mph76%29.47 "Hg15 mi
9:00 am39 °FPartly sunny.12 mph87%29.47 "Hg15 mi
8:00 am37 °FPartly sunny.8 mph81%29.45 "Hg15 mi
Weather by CustomWeather, © 2019

See weather overview